contact:dominique.lefevre@mio.osupytheas.fr, maurice.libes@osupytheas.fr, didier.mallarino@osupytheas.fr
Project:EMSO http://www.emso-fr.org/EMSO-France
Depth: 2436.0 m
Title:EMSO Ligure Ouest : Data MII capteur CSTAR
DateTime,Latitude,Longitude,Instrument_Serial,Reference_Counts,Signal_Counts,Corrected_Signal_raw_counts,Calculated_Beam_c_inverse_meters,Internal_thermistor_counts
DateTime,Latitude,Longitude,Instrument_Serial,Reference_Counts,Signal_Counts,Corrected_Signal_raw_counts,Calculated_Beam_c_inverse_meters,Internal_thermistor_counts
2020-05-13T00:01:31,42.805,6.029,CST-1368DR,6334,8877,15168,0.116,551
2020-05-13T00:04:33,42.805,6.029,CST-1368DR,6334,8878,15170,0.116,551
2020-05-13T00:07:34,42.805,6.029,CST-1368DR,6334,8878,15170,0.116,551
2020-05-13T00:10:36,42.805,6.029,CST-1368DR,6334,8877,15169,0.116,550
2020-05-13T00:13:38,42.805,6.029,CST-1368DR,6334,8877,15169,0.116,551
2020-05-13T00:16:40,42.805,6.029,CST-1368DR,6334,8878,15169,0.116,551
2020-05-13T00:19:41,42.805,6.029,CST-1368DR,6334,8878,15170,0.116,551
2020-05-13T00:22:43,42.805,6.029,CST-1368DR,6334,8878,15171,0.116,551
2020-05-13T00:25:45,42.805,6.029,CST-1368DR,6334,8878,15170,0.116,551
2020-05-13T00:28:46,42.805,6.029,CST-1368DR,6334,8878,15170,0.116,551
2020-05-13T00:31:48,42.805,6.029,CST-1368DR,6334,8877,15169,0.116,551
2020-05-13T00:34:50,42.805,6.029,CST-1368DR,6334,8877,15169,0.116,551
2020-05-13T00:37:52,42.805,6.029,CST-1368DR,6334,8878,15170,0.116,550
2020-05-13T00:40:53,42.805,6.029,CST-1368DR,6334,8878,15169,0.116,551
2020-05-13T00:43:55,42.805,6.029,CST-1368DR,6334,8877,15168,0.116,551
2020-05-13T00:46:57,42.805,6.029,CST-1368DR,6334,8876,15166,0.117,551
2020-05-13T00:49:58,42.805,6.029,CST-1368DR,6334,8877,15169,0.116,551
2020-05-13T00:53:00,42.805,6.029,CST-1368DR,6334,8878,15171,0.116,551
2020-05-13T00:56:02,42.805,6.029,CST-1368DR,6334,8877,15169,0.116,551
2020-05-13T00:59:03,42.805,6.029,CST-1368DR,6334,8876,15167,0.117,551
2020-05-13T01:02:05,42.805,6.029,CST-1368DR,6334,8878,15170,0.116,551
2020-05-13T01:05:07,42.805,6.029,CST-1368DR,6334,8878,15170,0.116,551
2020-05-13T01:08:09,42.805,6.029,CST-1368DR,6334,8877,15168,0.116,551
2020-05-13T01:11:10,42.805,6.029,CST-1368DR,6334,8876,15166,0.117,551
2020-05-13T01:14:12,42.805,6.029,CST-1368DR,6334,8878,15170,0.116,551
2020-05-13T01:17:14,42.805,6.029,CST-1368DR,6334,8877,15169,0.116,551
2020-05-13T01:20:15,42.805,6.029,CST-1368DR,6334,8876,15166,0.117,551
2020-05-13T01:23:17,42.805,6.029,CST-1368DR,6334,8877,15169,0.116,551
2020-05-13T01:26:19,42.805,6.029,CST-1368DR,6334,8875,15165,0.117,551
2020-05-13T01:29:20,42.805,6.029,CST-1368DR,6334,8877,15168,0.116,551
2020-05-13T01:32:22,42.805,6.029,CST-1368DR,6334,8877,15169,0.116,551
2020-05-13T01:35:24,42.805,6.029,CST-1368DR,6334,8879,15171,0.116,551
2020-05-13T01:38:25,42.805,6.029,CST-1368DR,6334,8877,15168,0.116,551
2020-05-13T01:41:27,42.805,6.029,CST-1368DR,6334,8878,15169,0.116,550
2020-05-13T01:44:29,42.805,6.029,CST-1368DR,6334,8877,15168,0.116,551
2020-05-13T01:47:31,42.805,6.029,CST-1368DR,6334,8876,15167,0.117,551
2020-05-13T01:50:32,42.805,6.029,CST-1368DR,6334,8877,15169,0.116,551
2020-05-13T01:53:34,42.805,6.029,CST-1368DR,6334,8878,15169,0.116,551
2020-05-13T01:56:36,42.805,6.029,CST-1368DR,6334,8877,15168,0.116,551
2020-05-13T01:59:37,42.805,6.029,CST-1368DR,6334,8877,15169,0.116,551
2020-05-13T02:02:39,42.805,6.029,CST-1368DR,6334,8878,15169,0.116,551
2020-05-13T02:05:41,42.805,6.029,CST-1368DR,6334,8877,15168,0.116,551
2020-05-13T02:08:42,42.805,6.029,CST-1368DR,6334,8877,15169,0.116,551
2020-05-13T02:11:44,42.805,6.029,CST-1368DR,6334,8877,15169,0.116,551
2020-05-13T02:14:46,42.805,6.029,CST-1368DR,6334,8877,15168,0.116,551
2020-05-13T02:17:47,42.805,6.029,CST-1368DR,6334,8877,15169,0.116,551
2020-05-13T02:20:49,42.805,6.029,CST-1368DR,6334,8877,15168,0.116,551
2020-05-13T02:23:51,42.805,6.029,CST-1368DR,6334,8877,15169,0.116,551
2020-05-13T02:26:53,42.805,6.029,CST-1368DR,6334,8879,15171,0.116,551
2020-05-13T02:29:54,42.805,6.029,CST-1368DR,6334,8877,15168,0.116,551
2020-05-13T02:32:56,42.805,6.029,CST-1368DR,6334,8877,15168,0.116,551
2020-05-13T02:35:58,42.805,6.029,CST-1368DR,6334,8878,15170,0.116,551
2020-05-13T02:38:59,42.805,6.029,CST-1368DR,6334,8878,15170,0.116,551
2020-05-13T02:42:01,42.805,6.029,CST-1368DR,6334,8879,15171,0.116,551
2020-05-13T02:45:03,42.805,6.029,CST-1368DR,6334,8876,15167,0.117,551
2020-05-13T02:48:05,42.805,6.029,CST-1368DR,6334,8878,15171,0.116,551
2020-05-13T02:51:06,42.805,6.029,CST-1368DR,6334,8877,15169,0.116,551
2020-05-13T02:54:08,42.805,6.029,CST-1368DR,6334,8877,15168,0.116,551
2020-05-13T02:57:10,42.805,6.029,CST-1368DR,6334,8877,15169,0.116,550
2020-05-13T03:00:11,42.805,6.029,CST-1368DR,6334,8877,15169,0.116,550
2020-05-13T03:03:13,42.805,6.029,CST-1368DR,6334,8877,15168,0.116,551
2020-05-13T03:06:15,42.805,6.029,CST-1368DR,6334,8877,15168,0.116,551
2020-05-13T03:09:16,42.805,6.029,CST-1368DR,6334,8877,15169,0.116,551
2020-05-13T03:12:18,42.805,6.029,CST-1368DR,6334,8877,15169,0.116,551
2020-05-13T03:15:20,42.805,6.029,CST-1368DR,6334,8878,15170,0.116,551
2020-05-13T03:18:22,42.805,6.029,CST-1368DR,6334,8877,15169,0.116,551
2020-05-13T03:21:23,42.805,6.029,CST-1368DR,6334,8877,15168,0.116,551
2020-05-13T03:24:25,42.805,6.029,CST-1368DR,6334,8877,15168,0.116,551
2020-05-13T03:27:27,42.805,6.029,CST-1368DR,6334,8878,15170,0.116,551
2020-05-13T03:30:28,42.805,6.029,CST-1368DR,6334,8877,15168,0.116,551
2020-05-13T03:33:30,42.805,6.029,CST-1368DR,6334,8875,15165,0.117,551
2020-05-13T03:36:32,42.805,6.029,CST-1368DR,6334,8877,15169,0.116,551
2020-05-13T03:39:34,42.805,6.029,CST-1368DR,6334,8876,15167,0.117,550
2020-05-13T03:42:35,42.805,6.029,CST-1368DR,6334,8877,15168,0.116,551
2020-05-13T03:45:37,42.805,6.029,CST-1368DR,6334,8878,15170,0.116,551
2020-05-13T03:48:39,42.805,6.029,CST-1368DR,6334,8877,15168,0.116,551
2020-05-13T03:51:40,42.805,6.029,CST-1368DR,6334,8877,15168,0.116,551
2020-05-13T03:54:42,42.805,6.029,CST-1368DR,6334,8877,15169,0.116,551
2020-05-13T03:57:44,42.805,6.029,CST-1368DR,6334,8876,15167,0.117,551
2020-05-13T04:00:45,42.805,6.029,CST-1368DR,6333,8877,15171,0.116,551
2020-05-13T04:03:47,42.805,6.029,CST-1368DR,6334,8876,15167,0.117,551
2020-05-13T04:06:49,42.805,6.029,CST-1368DR,6334,8877,15168,0.116,551
2020-05-13T04:09:51,42.805,6.029,CST-1368DR,6334,8877,15169,0.116,551
2020-05-13T04:12:52,42.805,6.029,CST-1368DR,6334,8874,15163,0.118,551
2020-05-13T04:15:54,42.805,6.029,CST-1368DR,6334,8878,15169,0.116,551
2020-05-13T04:18:56,42.805,6.029,CST-1368DR,6334,8875,15165,0.117,551
2020-05-13T04:21:57,42.805,6.029,CST-1368DR,6334,8877,15168,0.116,551
2020-05-13T04:24:59,42.805,6.029,CST-1368DR,6334,8876,15166,0.117,551
2020-05-13T04:28:01,42.805,6.029,CST-1368DR,6333,8877,15170,0.116,551
2020-05-13T04:31:03,42.805,6.029,CST-1368DR,6333,8877,15170,0.116,551
2020-05-13T04:34:04,42.805,6.029,CST-1368DR,6333,8877,15171,0.116,551
2020-05-13T04:37:06,42.805,6.029,CST-1368DR,6333,8876,15170,0.116,551
2020-05-13T04:40:08,42.805,6.029,CST-1368DR,6333,8875,15168,0.116,550
2020-05-13T04:43:09,42.805,6.029,CST-1368DR,6333,8876,15169,0.116,551
2020-05-13T04:46:11,42.805,6.029,CST-1368DR,6333,8875,15168,0.116,551
2020-05-13T04:49:13,42.805,6.029,CST-1368DR,6333,8876,15170,0.116,551
2020-05-13T04:52:14,42.805,6.029,CST-1368DR,6333,8874,15166,0.117,551
2020-05-13T04:55:16,42.805,6.029,CST-1368DR,6333,8877,15171,0.116,551
2020-05-13T04:58:18,42.805,6.029,CST-1368DR,6333,8877,15171,0.116,551
2020-05-13T05:01:20,42.805,6.029,CST-1368DR,6333,8876,15169,0.116,551
2020-05-13T05:04:22,42.805,6.029,CST-1368DR,6333,8877,15171,0.116,551
2020-05-13T05:07:23,42.805,6.029,CST-1368DR,6333,8876,15169,0.116,551
2020-05-13T05:10:25,42.805,6.029,CST-1368DR,6333,8878,15172,0.115,551
2020-05-13T05:13:27,42.805,6.029,CST-1368DR,6333,8876,15169,0.116,551
2020-05-13T05:16:28,42.805,6.029,CST-1368DR,6333,8876,15169,0.116,551
2020-05-13T05:19:30,42.805,6.029,CST-1368DR,6333,8877,15170,0.116,551
2020-05-13T05:22:32,42.805,6.029,CST-1368DR,6333,8876,15169,0.116,551
2020-05-13T05:25:34,42.805,6.029,CST-1368DR,6333,8877,15170,0.116,551
2020-05-13T05:28:36,42.805,6.029,CST-1368DR,6333,8876,15169,0.116,551
2020-05-13T05:31:37,42.805,6.029,CST-1368DR,6333,8877,15170,0.116,550
2020-05-13T05:34:39,42.805,6.029,CST-1368DR,6333,8877,15171,0.116,551
2020-05-13T05:37:41,42.805,6.029,CST-1368DR,6333,8877,15170,0.116,551
2020-05-13T05:40:42,42.805,6.029,CST-1368DR,6333,8876,15169,0.116,551
2020-05-13T05:43:44,42.805,6.029,CST-1368DR,6333,8876,15170,0.116,551
2020-05-13T05:46:46,42.805,6.029,CST-1368DR,6333,8877,15170,0.116,551
2020-05-13T05:49:48,42.805,6.029,CST-1368DR,6333,8874,15166,0.117,551
2020-05-13T05:52:49,42.805,6.029,CST-1368DR,6333,8875,15168,0.116,551
2020-05-13T05:55:51,42.805,6.029,CST-1368DR,6333,8878,15172,0.115,551
2020-05-13T05:58:53,42.805,6.029,CST-1368DR,6333,8877,15170,0.116,551
2020-05-13T06:01:54,42.805,6.029,CST-1368DR,6333,8876,15169,0.116,551
2020-05-13T06:04:56,42.805,6.029,CST-1368DR,6333,8875,15168,0.116,551
2020-05-13T06:07:58,42.805,6.029,CST-1368DR,6333,8873,15164,0.117,551
2020-05-13T06:11:00,42.805,6.029,CST-1368DR,6333,8875,15168,0.116,551
2020-05-13T06:14:01,42.805,6.029,CST-1368DR,6333,8877,15170,0.116,551
2020-05-13T06:17:03,42.805,6.029,CST-1368DR,6333,8876,15169,0.116,551
2020-05-13T06:20:05,42.805,6.029,CST-1368DR,6333,8876,15169,0.116,551
2020-05-13T06:23:06,42.805,6.029,CST-1368DR,6333,8876,15169,0.116,551
2020-05-13T06:26:08,42.805,6.029,CST-1368DR,6333,8876,15170,0.116,551
2020-05-13T06:29:10,42.805,6.029,CST-1368DR,6333,8877,15171,0.116,551
2020-05-13T06:32:11,42.805,6.029,CST-1368DR,6333,8877,15170,0.116,551
2020-05-13T06:35:13,42.805,6.029,CST-1368DR,6333,8876,15170,0.116,551
2020-05-13T06:38:15,42.805,6.029,CST-1368DR,6333,8876,15170,0.116,550
2020-05-13T06:41:17,42.805,6.029,CST-1368DR,6333,8876,15169,0.116,551
2020-05-13T06:44:18,42.805,6.029,CST-1368DR,6333,8877,15171,0.116,551
2020-05-13T06:47:20,42.805,6.029,CST-1368DR,6333,8877,15171,0.116,551
2020-05-13T06:50:22,42.805,6.029,CST-1368DR,6333,8877,15170,0.116,551
2020-05-13T06:53:23,42.805,6.029,CST-1368DR,6333,8875,15167,0.117,551
2020-05-13T06:56:25,42.805,6.029,CST-1368DR,6333,8876,15169,0.116,551
2020-05-13T06:59:27,42.805,6.029,CST-1368DR,6333,8876,15169,0.116,551
2020-05-13T07:02:28,42.805,6.029,CST-1368DR,6333,8876,15169,0.116,551
2020-05-13T07:05:30,42.805,6.029,CST-1368DR,6333,8875,15167,0.117,551
2020-05-13T07:08:32,42.805,6.029,CST-1368DR,6333,8874,15166,0.117,551
2020-05-13T07:11:34,42.805,6.029,CST-1368DR,6333,8876,15169,0.116,551
2020-05-13T07:14:35,42.805,6.029,CST-1368DR,6333,8877,15171,0.116,551
2020-05-13T07:17:37,42.805,6.029,CST-1368DR,6333,8876,15169,0.116,551
2020-05-13T07:20:39,42.805,6.029,CST-1368DR,6333,8876,15170,0.116,551
2020-05-13T07:23:41,42.805,6.029,CST-1368DR,6333,8875,15168,0.116,551
2020-05-13T07:26:42,42.805,6.029,CST-1368DR,6333,8875,15168,0.116,551
2020-05-13T07:29:44,42.805,6.029,CST-1368DR,6333,8875,15167,0.117,551
2020-05-13T07:32:46,42.805,6.029,CST-1368DR,6333,8873,15164,0.117,551
2020-05-13T07:35:48,42.805,6.029,CST-1368DR,6333,8876,15169,0.116,551
2020-05-13T07:38:49,42.805,6.029,CST-1368DR,6333,8875,15167,0.117,551
2020-05-13T07:41:51,42.805,6.029,CST-1368DR,6333,8874,15165,0.117,551
2020-05-13T07:44:53,42.805,6.029,CST-1368DR,6333,8874,15165,0.117,551
2020-05-13T07:47:54,42.805,6.029,CST-1368DR,6333,8875,15167,0.117,551
2020-05-13T07:50:56,42.805,6.029,CST-1368DR,6333,8874,15165,0.117,551
2020-05-13T07:53:58,42.805,6.029,CST-1368DR,6333,8877,15170,0.116,551
2020-05-13T07:56:59,42.805,6.029,CST-1368DR,6333,8873,15164,0.117,551
2020-05-13T08:00:01,42.805,6.029,CST-1368DR,6333,8875,15168,0.116,551
2020-05-13T08:03:03,42.805,6.029,CST-1368DR,6333,8874,15165,0.117,551
2020-05-13T08:06:04,42.805,6.029,CST-1368DR,6332,8873,15166,0.117,551
2020-05-13T08:09:06,42.805,6.029,CST-1368DR,6333,8874,15166,0.117,551
2020-05-13T08:12:08,42.805,6.029,CST-1368DR,6333,8875,15167,0.117,551
2020-05-13T08:15:10,42.805,6.029,CST-1368DR,6333,8875,15168,0.116,551
2020-05-13T08:18:11,42.805,6.029,CST-1368DR,6333,8876,15169,0.116,551
2020-05-13T08:21:13,42.805,6.029,CST-1368DR,6333,8875,15167,0.117,551
2020-05-13T08:24:15,42.805,6.029,CST-1368DR,6333,8875,15167,0.117,551
2020-05-13T08:27:17,42.805,6.029,CST-1368DR,6333,8876,15169,0.116,551
2020-05-13T08:30:18,42.805,6.029,CST-1368DR,6333,8876,15169,0.116,551
2020-05-13T08:33:20,42.805,6.029,CST-1368DR,6333,8875,15167,0.117,550
2020-05-13T08:36:22,42.805,6.029,CST-1368DR,6332,8875,15169,0.116,551
2020-05-13T08:39:24,42.805,6.029,CST-1368DR,6332,8873,15167,0.117,551
2020-05-13T08:42:25,42.805,6.029,CST-1368DR,6332,8876,15171,0.116,550
2020-05-13T08:45:27,42.805,6.029,CST-1368DR,6332,8874,15167,0.117,551
2020-05-13T08:48:29,42.805,6.029,CST-1368DR,6332,8873,15167,0.117,551
2020-05-13T08:51:30,42.805,6.029,CST-1368DR,6332,8875,15169,0.116,551
2020-05-13T08:54:32,42.805,6.029,CST-1368DR,6332,8875,15169,0.116,551
2020-05-13T08:57:34,42.805,6.029,CST-1368DR,6332,8875,15169,0.116,551
2020-05-13T09:00:35,42.805,6.029,CST-1368DR,6332,8875,15170,0.116,551
2020-05-13T09:03:37,42.805,6.029,CST-1368DR,6332,8875,15169,0.116,551
2020-05-13T09:06:39,42.805,6.029,CST-1368DR,6332,8875,15170,0.116,551
2020-05-13T09:09:40,42.805,6.029,CST-1368DR,6332,8873,15167,0.117,551
2020-05-13T09:12:42,42.805,6.029,CST-1368DR,6332,8873,15166,0.117,551
2020-05-13T09:15:44,42.805,6.029,CST-1368DR,6332,8875,15170,0.116,551
2020-05-13T09:18:45,42.805,6.029,CST-1368DR,6332,8874,15167,0.117,551
2020-05-13T09:21:47,42.805,6.029,CST-1368DR,6332,8874,15167,0.117,551
2020-05-13T09:24:49,42.805,6.029,CST-1368DR,6332,8875,15169,0.116,551
2020-05-13T09:27:51,42.805,6.029,CST-1368DR,6332,8871,15163,0.118,551
2020-05-13T09:30:52,42.805,6.029,CST-1368DR,6332,8873,15167,0.117,551
2020-05-13T09:33:54,42.805,6.029,CST-1368DR,6332,8874,15167,0.117,551
2020-05-13T09:36:56,42.805,6.029,CST-1368DR,6332,8873,15166,0.117,551
2020-05-13T09:39:57,42.805,6.029,CST-1368DR,6332,8874,15167,0.117,551
2020-05-13T09:42:59,42.805,6.029,CST-1368DR,6332,8875,15169,0.116,551
2020-05-13T09:46:01,42.805,6.029,CST-1368DR,6332,8875,15169,0.116,550
2020-05-13T09:49:02,42.805,6.029,CST-1368DR,6332,8875,15169,0.116,550
2020-05-13T09:52:04,42.805,6.029,CST-1368DR,6332,8873,15165,0.117,551
2020-05-13T09:55:06,42.805,6.029,CST-1368DR,6332,8874,15168,0.116,551
2020-05-13T09:58:07,42.805,6.029,CST-1368DR,6332,8873,15167,0.117,551
2020-05-13T10:01:09,42.805,6.029,CST-1368DR,6332,8875,15169,0.116,551
2020-05-13T10:04:11,42.805,6.029,CST-1368DR,6332,8874,15168,0.116,551
2020-05-13T10:07:12,42.805,6.029,CST-1368DR,6332,8874,15167,0.117,551
2020-05-13T10:10:14,42.805,6.029,CST-1368DR,6332,8874,15168,0.116,551
2020-05-13T10:13:16,42.805,6.029,CST-1368DR,6332,8874,15168,0.116,551
2020-05-13T10:16:18,42.805,6.029,CST-1368DR,6332,8874,15168,0.116,551
2020-05-13T10:19:19,42.805,6.029,CST-1368DR,6332,8873,15167,0.117,551
2020-05-13T10:22:21,42.805,6.029,CST-1368DR,6332,8875,15169,0.116,551
2020-05-13T10:25:23,42.805,6.029,CST-1368DR,6332,8874,15168,0.116,551
2020-05-13T10:28:24,42.805,6.029,CST-1368DR,6332,8874,15168,0.116,551
2020-05-13T10:31:26,42.805,6.029,CST-1368DR,6332,8873,15167,0.117,551
2020-05-13T10:34:28,42.805,6.029,CST-1368DR,6332,8873,15166,0.117,551
2020-05-13T10:37:30,42.805,6.029,CST-1368DR,6332,8874,15168,0.116,551
2020-05-13T10:40:31,42.805,6.029,CST-1368DR,6332,8873,15166,0.117,551
2020-05-13T10:43:33,42.805,6.029,CST-1368DR,6332,8874,15168,0.116,551
2020-05-13T10:46:35,42.805,6.029,CST-1368DR,6332,8874,15168,0.116,551
2020-05-13T10:49:36,42.805,6.029,CST-1368DR,6332,8874,15167,0.117,551
2020-05-13T10:52:38,42.805,6.029,CST-1368DR,6332,8874,15168,0.116,551
2020-05-13T10:55:40,42.805,6.029,CST-1368DR,6332,8874,15167,0.117,551
2020-05-13T10:58:41,42.805,6.029,CST-1368DR,6332,8874,15167,0.117,551
2020-05-13T11:01:43,42.805,6.029,CST-1368DR,6332,8874,15168,0.116,551
2020-05-13T11:04:45,42.805,6.029,CST-1368DR,6332,8874,15168,0.116,551
2020-05-13T11:07:47,42.805,6.029,CST-1368DR,6332,8874,15167,0.117,551
2020-05-13T11:10:48,42.805,6.029,CST-1368DR,6332,8874,15167,0.117,551
2020-05-13T11:13:50,42.805,6.029,CST-1368DR,6332,8874,15168,0.116,551
2020-05-13T11:16:52,42.805,6.029,CST-1368DR,6332,8872,15164,0.117,551
2020-05-13T11:19:53,42.805,6.029,CST-1368DR,6332,8874,15168,0.116,551
2020-05-13T11:22:55,42.805,6.029,CST-1368DR,6332,8873,15165,0.117,551
2020-05-13T11:25:57,42.805,6.029,CST-1368DR,6332,8873,15166,0.117,551
2020-05-13T11:28:58,42.805,6.029,CST-1368DR,6332,8874,15168,0.116,551
2020-05-13T11:32:00,42.805,6.029,CST-1368DR,6332,8874,15168,0.116,551
2020-05-13T11:35:02,42.805,6.029,CST-1368DR,6332,8874,15167,0.117,551
2020-05-13T11:38:03,42.805,6.029,CST-1368DR,6332,8873,15165,0.117,551
2020-05-13T11:41:05,42.805,6.029,CST-1368DR,6332,8873,15166,0.117,551
2020-05-13T11:44:07,42.805,6.029,CST-1368DR,6332,8872,15164,0.117,550
2020-05-13T11:47:08,42.805,6.029,CST-1368DR,6332,8873,15166,0.117,551
2020-05-13T11:50:10,42.805,6.029,CST-1368DR,6332,8874,15167,0.117,551
2020-05-13T12:10:06,42.805,6.029,CST-1368DR,6332,8874,15167,0.117,551
2020-05-13T12:20:55,42.805,6.029,CST-1368DR,6332,8874,15167,0.117,551
2020-05-13T12:28:14,42.805,6.029,CST-1368DR,6332,8875,15169,0.116,551
2020-05-13T12:55:06,42.805,6.029,CST-1368DR,6332,8875,15169,0.116,551
2020-05-13T12:58:08,42.805,6.029,CST-1368DR,6332,8875,15170,0.116,551
2020-05-13T13:01:09,42.805,6.029,CST-1368DR,6332,8876,15171,0.116,551
2020-05-13T13:04:11,42.805,6.029,CST-1368DR,6332,8875,15170,0.116,551
2020-05-13T13:07:13,42.805,6.029,CST-1368DR,6332,8876,15171,0.116,551
2020-05-13T13:10:15,42.805,6.029,CST-1368DR,6332,8876,15171,0.116,551
2020-05-13T13:13:16,42.805,6.029,CST-1368DR,6332,8875,15169,0.116,551
2020-05-13T13:16:18,42.805,6.029,CST-1368DR,6332,8875,15170,0.116,551
2020-05-13T13:19:20,42.805,6.029,CST-1368DR,6332,8876,15171,0.116,551
2020-05-13T13:22:21,42.805,6.029,CST-1368DR,6332,8874,15168,0.116,551
2020-05-13T13:25:23,42.805,6.029,CST-1368DR,6332,8876,15171,0.116,551
2020-05-13T13:28:25,42.805,6.029,CST-1368DR,6332,8876,15171,0.116,551
2020-05-13T13:31:26,42.805,6.029,CST-1368DR,6332,8875,15170,0.116,551
2020-05-13T13:34:28,42.805,6.029,CST-1368DR,6332,8877,15172,0.115,551
2020-05-13T13:37:30,42.805,6.029,CST-1368DR,6332,8876,15172,0.115,551
2020-05-13T13:40:31,42.805,6.029,CST-1368DR,6332,8875,15170,0.116,551
2020-05-13T13:43:33,42.805,6.029,CST-1368DR,6332,8875,15170,0.116,551
2020-05-13T13:46:35,42.805,6.029,CST-1368DR,6332,8876,15171,0.116,551
2020-05-13T13:49:37,42.805,6.029,CST-1368DR,6332,8875,15170,0.116,551
2020-05-13T13:52:38,42.805,6.029,CST-1368DR,6332,8875,15170,0.116,550
2020-05-13T13:55:40,42.805,6.029,CST-1368DR,6332,8876,15171,0.116,551
2020-05-13T13:58:42,42.805,6.029,CST-1368DR,6332,8875,15170,0.116,551
2020-05-13T14:01:43,42.805,6.029,CST-1368DR,6332,8876,15171,0.116,551
2020-05-13T14:04:45,42.805,6.029,CST-1368DR,6332,8877,15172,0.115,551
2020-05-13T14:07:47,42.805,6.029,CST-1368DR,6332,8876,15171,0.116,551
2020-05-13T14:10:48,42.805,6.029,CST-1368DR,6332,8876,15171,0.116,551
2020-05-13T14:13:50,42.805,6.029,CST-1368DR,6332,8875,15170,0.116,551
2020-05-13T14:16:52,42.805,6.029,CST-1368DR,6332,8875,15169,0.116,551
2020-05-13T14:19:53,42.805,6.029,CST-1368DR,6332,8876,15171,0.116,551
2020-05-13T14:22:55,42.805,6.029,CST-1368DR,6332,8875,15170,0.116,551
2020-05-13T14:25:57,42.805,6.029,CST-1368DR,6332,8875,15170,0.116,551
2020-05-13T14:28:58,42.805,6.029,CST-1368DR,6332,8874,15167,0.117,551
2020-05-13T14:32:00,42.805,6.029,CST-1368DR,6332,8875,15170,0.116,551
2020-05-13T14:35:02,42.805,6.029,CST-1368DR,6332,8876,15171,0.116,551
2020-05-13T14:38:03,42.805,6.029,CST-1368DR,6332,8874,15168,0.116,551
2020-05-13T14:41:05,42.805,6.029,CST-1368DR,6332,8874,15168,0.116,551
2020-05-13T14:44:07,42.805,6.029,CST-1368DR,6332,8873,15167,0.117,551
2020-05-13T14:47:08,42.805,6.029,CST-1368DR,6332,8875,15170,0.116,551
2020-05-13T14:50:10,42.805,6.029,CST-1368DR,6332,8875,15169,0.116,551
2020-05-13T14:53:12,42.805,6.029,CST-1368DR,6332,8873,15166,0.117,551
2020-05-13T14:56:13,42.805,6.029,CST-1368DR,6332,8875,15169,0.116,551
2020-05-13T14:59:15,42.805,6.029,CST-1368DR,6332,8874,15167,0.117,551
2020-05-13T15:02:17,42.805,6.029,CST-1368DR,6332,8875,15170,0.116,551
2020-05-13T15:05:19,42.805,6.029,CST-1368DR,6332,8874,15167,0.117,551
2020-05-13T15:08:20,42.805,6.029,CST-1368DR,6332,8875,15169,0.116,551
2020-05-13T15:11:22,42.805,6.029,CST-1368DR,6332,8875,15170,0.116,551
2020-05-13T15:14:24,42.805,6.029,CST-1368DR,6332,8874,15168,0.116,551
2020-05-13T15:17:25,42.805,6.029,CST-1368DR,6332,8875,15170,0.116,551
2020-05-13T15:20:27,42.805,6.029,CST-1368DR,6332,8876,15171,0.116,551
2020-05-13T15:23:29,42.805,6.029,CST-1368DR,6332,8875,15169,0.116,550
2020-05-13T15:26:30,42.805,6.029,CST-1368DR,6332,8875,15169,0.116,551
2020-05-13T15:29:32,42.805,6.029,CST-1368DR,6332,8875,15169,0.116,551
2020-05-13T15:32:34,42.805,6.029,CST-1368DR,6332,8874,15167,0.117,551
2020-05-13T15:35:35,42.805,6.029,CST-1368DR,6332,8875,15169,0.116,551
2020-05-13T15:38:37,42.805,6.029,CST-1368DR,6332,8875,15170,0.116,551
2020-05-13T15:41:39,42.805,6.029,CST-1368DR,6332,8874,15168,0.116,551
2020-05-13T15:44:40,42.805,6.029,CST-1368DR,6332,8874,15168,0.116,551
2020-05-13T15:47:42,42.805,6.029,CST-1368DR,6332,8875,15170,0.116,551
2020-05-13T15:50:44,42.805,6.029,CST-1368DR,6332,8875,15169,0.116,551
2020-05-13T15:53:46,42.805,6.029,CST-1368DR,6331,8875,15171,0.116,551
2020-05-13T15:56:47,42.805,6.029,CST-1368DR,6331,8874,15171,0.116,551
2020-05-13T15:59:49,42.805,6.029,CST-1368DR,6331,8875,15171,0.116,551
2020-05-13T16:02:51,42.805,6.029,CST-1368DR,6331,8874,15169,0.116,551
2020-05-13T16:05:52,42.805,6.029,CST-1368DR,6331,8874,15171,0.116,551
2020-05-13T16:08:54,42.805,6.029,CST-1368DR,6331,8874,15170,0.116,551
2020-05-13T16:11:55,42.805,6.029,CST-1368DR,6331,8874,15170,0.116,551
2020-05-13T16:14:57,42.805,6.029,CST-1368DR,6331,8874,15170,0.116,551
2020-05-13T16:17:59,42.805,6.029,CST-1368DR,6331,8873,15169,0.116,551
2020-05-13T16:21:01,42.805,6.029,CST-1368DR,6331,8869,15162,0.118,551
2020-05-13T16:24:02,42.805,6.029,CST-1368DR,6331,8873,15168,0.116,551
2020-05-13T16:27:04,42.805,6.029,CST-1368DR,6331,8873,15168,0.116,551
2020-05-13T16:30:06,42.805,6.029,CST-1368DR,6331,8873,15168,0.116,551
2020-05-13T16:33:07,42.805,6.029,CST-1368DR,6331,8873,15168,0.116,551
2020-05-13T16:36:09,42.805,6.029,CST-1368DR,6331,8872,15166,0.117,551
2020-05-13T16:39:11,42.805,6.029,CST-1368DR,6331,8873,15168,0.116,551
2020-05-13T16:42:12,42.805,6.029,CST-1368DR,6331,8870,15163,0.118,550
2020-05-13T16:45:14,42.805,6.029,CST-1368DR,6331,8873,15168,0.116,551
2020-05-13T16:48:16,42.805,6.029,CST-1368DR,6331,8874,15169,0.116,551
2020-05-13T16:51:17,42.805,6.029,CST-1368DR,6331,8871,15165,0.117,551
2020-05-13T16:54:19,42.805,6.029,CST-1368DR,6331,8874,15169,0.116,551
2020-05-13T16:57:21,42.805,6.029,CST-1368DR,6331,8874,15170,0.116,551
2020-05-13T17:00:22,42.805,6.029,CST-1368DR,6331,8873,15168,0.116,551
2020-05-13T17:03:24,42.805,6.029,CST-1368DR,6331,8872,15166,0.117,551
2020-05-13T17:06:26,42.805,6.029,CST-1368DR,6331,8873,15168,0.116,551
2020-05-13T17:09:28,42.805,6.029,CST-1368DR,6331,8873,15168,0.116,551
2020-05-13T17:12:29,42.805,6.029,CST-1368DR,6331,8873,15169,0.116,551
2020-05-13T17:15:31,42.805,6.029,CST-1368DR,6331,8873,15168,0.116,551
2020-05-13T17:18:33,42.805,6.029,CST-1368DR,6331,8873,15168,0.116,551
2020-05-13T17:21:34,42.805,6.029,CST-1368DR,6331,8873,15168,0.116,551
2020-05-13T17:24:36,42.805,6.029,CST-1368DR,6331,8872,15166,0.117,551
2020-05-13T17:27:38,42.805,6.029,CST-1368DR,6331,8872,15166,0.117,551
2020-05-13T17:30:39,42.805,6.029,CST-1368DR,6331,8872,15166,0.117,551
2020-05-13T17:33:41,42.805,6.029,CST-1368DR,6331,8874,15170,0.116,551
2020-05-13T17:36:43,42.805,6.029,CST-1368DR,6331,8873,15168,0.116,551
2020-05-13T17:39:44,42.805,6.029,CST-1368DR,6331,8872,15166,0.117,551
2020-05-13T17:42:46,42.805,6.029,CST-1368DR,6331,8873,15168,0.116,551
2020-05-13T17:45:48,42.805,6.029,CST-1368DR,6331,8872,15166,0.117,551